Weather History for KBGF - April, 2014

Change the Weather History Date:

Saturday, April 26, 2014

  Actual Average (KTHA) Record (KTHA)
Temperature  
Mean Temperature 60 °F -  
Max Temperature 82 °F 72 °F 80 °F (2014)
Min Temperature 39 °F 47 °F 35 °F (2013)
Degree Days  
Heating Degree Days 4    
Growing Degree Days 10 (Base 50)    
Moisture  
Dew Point 42 °F    
Average Humidity 55    
Maximum Humidity 100    
Minimum Humidity 20    
Precipitation  
Precipitation 0.00 in - - ()
Sea Level Pressure  
Sea Level Pressure 29.99 in    
Wind  
Wind Speed 2 mph (South)    
Max Wind Speed 14 mph    
Max Gust Speed -    
Visibility 10 miles    
Events      
Averages and records for this station are not official NWS values.
T = Trace of Precipitation, MM = Missing Value Source: NWS Daily Summary

Daily Weather History Graph

Daily Weather History Graph

Search for Another Location

Airport or City:

Trip Planner

Search our weather history database for the weather conditions in past years. The results will help you decide how hot, cold, wet, or windy it might be!

Date:

Astronomy

Apr. 26, 2014 Rise Set
Actual Time 6:58 AM EDT 8:25 PM EDT
Civil Twilight 6:31 AM EDT 8:52 PM EDT
Nautical Twilight 5:59 AM EDT 9:24 PM EDT
Astronomical Twilight 5:26 AM EDT 9:58 PM EDT
Moon 5:15 AM EDT (4/26) 5:59 PM EDT (4/26)
Length of Visible Light 14h 20m
Length of Day
13h 27m
Waning Crescent, 8% of the Moon is Illuminated
Apr 26
Waning Crescent
Apr 29
New
May 6
First Quarter
May 14
Full
May 21
Last Quarter

Hourly Weather History & Observations

Time (EDT) Temp. Dew Point Humidity Pressure Visibility Wind Dir Wind Speed Gust Speed Precip Events Conditions
12:15 AM 48.2 °F 46.4 °F 93% 30.01 in 10.0 mi Calm Calm - N/A   Clear
12:35 AM 48.2 °F 46.4 °F 93% 30.01 in 10.0 mi Calm Calm - N/A   Clear
1:55 AM 46.4 °F 44.6 °F 93% 29.99 in 10.0 mi Calm Calm - N/A   Clear
2:15 AM 44.6 °F 44.6 °F 100% 29.99 in 10.0 mi Calm Calm - N/A   Clear
2:35 AM 44.6 °F 44.6 °F 100% 29.98 in 10.0 mi Calm Calm - N/A   Clear
2:55 AM 44.6 °F 42.8 °F 93% 29.98 in 2.5 mi Calm Calm - N/A   Clear
3:15 AM 42.8 °F 42.8 °F 100% 29.98 in 10.0 mi Calm Calm - N/A   Clear
3:35 AM 42.8 °F 42.8 °F 100% 29.98 in 6.0 mi Calm Calm - N/A   Clear
3:55 AM 42.8 °F 42.8 °F 100% 29.98 in 10.0 mi Calm Calm - N/A   Clear
4:15 AM 42.8 °F 42.8 °F 100% 29.98 in 10.0 mi Calm Calm - N/A   Clear
4:35 AM 42.8 °F 42.8 °F 100% 29.99 in 10.0 mi Calm Calm - N/A   Clear
4:55 AM 41.0 °F 39.2 °F 93% 29.99 in 10.0 mi Calm Calm - N/A   Clear
5:15 AM 41.0 °F 39.2 °F 93% 29.99 in 10.0 mi Calm Calm - N/A   Clear
5:35 AM 42.8 °F 41.0 °F 93% 30.00 in 10.0 mi Calm Calm - N/A   Clear
5:55 AM 42.8 °F 41.0 °F 93% 30.01 in 10.0 mi Calm Calm - N/A   Clear
6:15 AM 39.2 °F 39.2 °F 100% 30.01 in 10.0 mi Calm Calm - N/A   Clear
6:35 AM 39.2 °F 39.2 °F 100% 30.02 in 10.0 mi Calm Calm - N/A   Clear
6:55 AM 42.8 °F 41.0 °F 93% 30.02 in 10.0 mi Calm Calm - N/A   Clear
7:15 AM 41.0 °F 41.0 °F 100% 30.03 in 10.0 mi Calm Calm - N/A   Clear
7:35 AM 44.6 °F 42.8 °F 93% 30.04 in 10.0 mi Calm Calm - N/A   Clear
7:55 AM 48.2 °F 44.6 °F 87% 30.04 in 10.0 mi Calm Calm - N/A   Clear
8:15 AM 51.8 °F 44.6 °F 76% 30.04 in 10.0 mi Calm Calm - N/A   Clear
8:35 AM 53.6 °F 46.4 °F 77% 30.04 in 10.0 mi Calm Calm - N/A   Clear
8:55 AM 57.2 °F 46.4 °F 67% 30.04 in 10.0 mi East 4.6 mph - N/A   Clear
9:15 AM 60.8 °F 44.6 °F 55% 30.03 in 10.0 mi ESE 8.1 mph - N/A   Clear
9:35 AM 62.6 °F 44.6 °F 52% 30.03 in 10.0 mi ESE 8.1 mph - N/A   Clear
10:15 AM 66.2 °F 42.8 °F 43% 30.03 in 10.0 mi SE 6.9 mph - N/A   Clear
10:35 AM 68.0 °F 42.8 °F 40% 30.04 in 10.0 mi SE 8.1 mph - N/A   Clear
10:55 AM 69.8 °F 39.2 °F 33% 30.04 in 10.0 mi SSE 6.9 mph - N/A   Clear
11:15 AM 71.6 °F 39.2 °F 31% 30.04 in 10.0 mi ESE 6.9 mph - N/A   Clear
11:35 AM 71.6 °F 41.0 °F 33% 30.03 in 10.0 mi Calm Calm - N/A   Clear
11:55 AM 73.4 °F 39.2 °F 29% 30.03 in 10.0 mi SSE 4.6 mph - N/A   Clear
12:15 PM 75.2 °F 39.2 °F 27% 30.03 in 10.0 mi Variable 3.5 mph - N/A   Clear
12:35 PM 75.2 °F 41.0 °F 29% 30.02 in 10.0 mi Variable 3.5 mph - N/A   Clear
12:55 PM 78.8 °F 37.4 °F 23% 30.02 in 10.0 mi South 6.9 mph - N/A   Clear
1:15 PM 80.6 °F 35.6 °F 20% 30.01 in 10.0 mi Variable 6.9 mph - N/A   Clear
1:35 PM 80.6 °F 35.6 °F 20% 30.01 in 10.0 mi South 5.8 mph - N/A   Clear
1:55 PM 80.6 °F 35.6 °F 20% 30.00 in 10.0 mi ESE 10.4 mph - N/A   Clear
2:15 PM 80.6 °F 39.2 °F 23% 29.99 in 10.0 mi SE 13.8 mph - N/A   Clear
2:35 PM 80.6 °F 35.6 °F 20% 29.99 in 10.0 mi Calm Calm - N/A   Clear
2:55 PM 80.6 °F 39.2 °F 23% 29.99 in 5.0 mi South 5.8 mph - N/A   Clear
3:15 PM 82.4 °F 42.8 °F 25% 29.98 in 10.0 mi SSE 9.2 mph - N/A   Clear
3:35 PM 80.6 °F 39.2 °F 23% 29.98 in 10.0 mi Variable 3.5 mph - N/A   Clear
3:55 PM 82.4 °F 39.2 °F 21% 29.97 in 10.0 mi Variable 5.8 mph - N/A   Clear
4:15 PM 82.4 °F 39.2 °F 21% 29.97 in 10.0 mi SSW 6.9 mph - N/A   Clear
4:35 PM 82.4 °F 42.8 °F 25% 29.96 in 10.0 mi South 5.8 mph - N/A   Clear
4:55 PM 82.4 °F 39.2 °F 21% 29.96 in 10.0 mi SSW 4.6 mph - N/A   Clear
5:15 PM 82.4 °F 39.2 °F 21% 29.96 in 10.0 mi SSW 6.9 mph - N/A   Clear
5:35 PM 82.4 °F 39.2 °F 21% 29.96 in 10.0 mi SSW 5.8 mph - N/A   Clear
5:55 PM 82.4 °F 39.2 °F 21% 29.96 in 10.0 mi SSW 6.9 mph - N/A   Clear
6:15 PM 82.4 °F 41.0 °F 23% 29.95 in 10.0 mi SSW 6.9 mph - N/A   Clear
6:35 PM 82.4 °F 41.0 °F 23% 29.95 in 10.0 mi SW 8.1 mph - N/A   Clear
6:55 PM 80.6 °F 39.2 °F 23% 29.95 in 10.0 mi SW 6.9 mph - N/A   Clear
7:15 PM 80.6 °F 41.0 °F 24% 29.95 in 10.0 mi SSW 5.8 mph - N/A   Clear
7:35 PM 78.8 °F 41.0 °F 26% 29.95 in 10.0 mi SSW 4.6 mph - N/A   Clear
8:15 PM 75.2 °F 39.2 °F 27% 29.95 in 10.0 mi South 4.6 mph - N/A   Clear
8:35 PM 71.6 °F 39.2 °F 31% 29.96 in 10.0 mi South 3.5 mph - N/A   Clear
8:55 PM 69.8 °F 41.0 °F 35% 29.97 in 10.0 mi SSE 3.5 mph - N/A   Clear
9:15 PM 66.2 °F 42.8 °F 43% 29.96 in 10.0 mi Calm Calm - N/A   Clear
9:35 PM 62.6 °F 44.6 °F 52% 29.96 in 10.0 mi Calm Calm - N/A   Clear
9:55 PM 60.8 °F 44.6 °F 55% 29.97 in 10.0 mi Calm Calm - N/A   Clear
10:15 PM 60.8 °F 46.4 °F 59% 29.97 in 10.0 mi Calm Calm - N/A   Clear
10:35 PM 60.8 °F 44.6 °F 55% 29.98 in 10.0 mi SE 3.5 mph - N/A   Clear
10:55 PM 57.2 °F 46.4 °F 67% 29.98 in 10.0 mi Calm Calm - N/A   Clear
11:15 PM 57.2 °F 44.6 °F 63% 29.97 in 10.0 mi SSE 4.6 mph - N/A   Clear
11:35 PM 57.2 °F 44.6 °F 63% 29.97 in 10.0 mi SSE 3.5 mph - N/A   Clear
11:55 PM 57.2 °F 44.6 °F 63% 29.97 in 10.0 mi SSE 3.5 mph - N/A   Clear